Home > Weather > Ghent > Past weeks

Flag for Belgium Past Weather in Ghent, Belgium — Yesterday and Last 2 Weeks

Now
54 °F

Cool.


Feels Like: 53 °F
Forecast: 49 / 62 °F
Wind: 6 mph from Northeast

Location: Munte

Current Time: May 24, 2016 at 12:08:37 PM

Latest Report: May 24, 2016 at 11:00 AM


Visibility: 13 mi

Pressure: 30.11 "Hg

Humidity: 69%

Dew Point: 44 °F

Location of GhentLocation

Past Weather in Ghent — Graph

°F

Ghent Temperature Yesterday

Maximum temperature yesterday: 58 °F (at 2:00 PM)
Minimum temperature yesterday: 51 °F (at 6:00 AM)
Average temperature yesterday: 54 °F

High & Low Weather Summary for the Past Weeks

 TemperatureHumidityPressure
High76 °F (May 9, 3:00 PM)100% (May 22, 8:00 PM)30.22 "Hg (May 22, 8:00 PM)
Low41 °F (May 15, 5:00 AM)39% (May 9, 3:00 PM)29.47 "Hg (May 12, 5:00 PM)
Average58 °F74%29.88 "Hg
* Reported May 9 11:00 AM — May 24 11:00 AM, Ghent, Weather by CustomWeather, © 2016

Note: Actual official high and low records may vary slightly from our data, if they occured in-between our weather recording intervals... More about our weather records

Advertising

Ghent Weather History for the Previous 24 Hours

Scroll right to see more
 ConditionsComfort  
Time TempWeatherWind HumidityBarometerVisibility
11:00 AM
Tue, May 24
54 °FCool.6 mph69%30.11 "Hg12 mi
10:00 AM52 °FCool.3 mph76%30.11 "Hg12 mi
9:00 AM51 °FCool.5 mph79%30.11 "Hg12 mi
8:00 AM51 °FCool.3 mph80%30.11 "Hg12 mi
7:00 AM50 °FCool.2 mph83%30.12 "Hg12 mi
6:00 AM50 °FCool.2 mph82%30.11 "Hg12 mi
5:00 AM51 °FCool.3 mph81%30.11 "Hg12 mi
4:00 AM51 °FCool.3 mph82%30.13 "Hg12 mi
3:00 AM51 °FCool.2 mph86%30.12 "Hg11 mi
2:00 AM51 °FCool.3 mph86%30.13 "Hg12 mi
1:00 AM51 °FCool.3 mph85%30.13 "Hg12 mi
12:00 AM52 °FCool.5 mph87%30.12 "Hg11 mi
11:00 PM
Mon, May 23
52 °FCool.3 mph86%30.11 "Hg12 mi
10:00 PM53 °FCool.3 mph85%30.11 "Hg12 mi
9:00 PM54 °FCool.3 mph83%30.11 "Hg12 mi
8:00 PM55 °FCool.5 mph80%30.09 "Hg12 mi
7:00 PM55 °FCool.6 mph80%30.07 "Hg12 mi
6:00 PM56 °FCool.6 mph79%30.06 "Hg12 mi
5:00 PM56 °FLight rain. Cloudy.6 mph81%30.05 "Hg12 mi
4:00 PM57 °FCool.6 mph79%30.03 "Hg12 mi
3:00 PM57 °FCool.6 mph74%30.02 "Hg12 mi
2:00 PM58 °FCool.5 mph75%29.99 "Hg12 mi
1:00 PM57 °FCool.5 mph70%29.99 "Hg11 mi
12:00 PM57 °FCool.5 mph75%29.98 "Hg12 mi
Weather by CustomWeather, © 2016

See weather overviewHow to use our weather pages